Regional Weather Roundup
Issued by NWS

Home | Current Version | Previous Version | Graphics & Text | Print | Product List | Glossary On
Versions: 1 2 3 4 5 6 7 8 9 10 11 12 13 14 15 16 17 18 19 20 21 22 23 24 25 26 27 28 29 30 31 32 33 34 35 36 37 38 39 40 41 42 43 44 45 46 47 48 49 50
000
ASUS43 KOAX 180510
RWRNE

WEATHER ROUNDUP FOR NEBRASKA
NATIONAL WEATHER SERVICE OMAHA NE
1100 PM CST TUE JAN 17 2017

NOTES: SATELLITE DATA IS BEING USED TO AUGMENT CLOUD COVER ABOVE
       12000 FEET.
       "FAIR" INDICATES FEW OR NO CLOUDS BELOW 12,000 FEET WITH NO
       SIGNIFICANT WEATHER AND/OR OBSTRUCTIONS TO VISIBILITY.

  * THESE STATIONS DO NOT REPORT WEATHER SUCH AS RAIN...SNOW OR FOG.

NEZ001>004-019>022-054>056-180600-
NEBRASKA PANHANDLE

CITY           SKY/WX    TMP DP  RH WIND       PRES   REMARKS
SCOTTSBLUFF    CLOUDY    29  15  56 NW10      29.97F WCI  20
ALLIANCE       CLOUDY    17  13  84 W9        29.94F WCI   6
CHADRON        CLOUDY    17  13  84 W9        29.93F WCI   6
KIMBALL        CLOUDY    28  27  95 W10       29.99S WCI  18
SIDNEY         CLOUDY    31  24  75 W14       29.98F WCI  21
$$

NEZ057>060-069>072-079>082-180600-
SOUTHWEST NEBRASKA

CITY           SKY/WX    TMP DP  RH WIND       PRES   REMARKS
NORTH PLATTE   CLEAR     25  23  92 CALM      30.02R
IMPERIAL       CLOUDY    31  28  89 SW12      30.04R WCI  22
LEXINGTON      CLEAR     36  28  72 SW12      30.04S WCI  27
MCCOOK         CLEAR     31  27  85 SW8       30.06R WCI  23
OGALLALA       CLOUDY    26  25  95 SW5       30.00S WCI  21
$$

NEZ005>010-023>029-035>040-094-180600-
NORTH CENTRAL NEBRASKA

CITY           SKY/WX    TMP DP  RH WIND       PRES   REMARKS
VALENTINE      CLOUDY    24  17  74 W7        29.91F WCI  16
AINSWORTH      CLOUDY    32  28  84 SW10      29.92S WCI  24
BROKEN BOW     CLEAR     25  22  88 S3        30.00R
O`NEILL        CLOUDY    31  27  84 SW7       29.96S WCI  25
ORD            CLEAR     29  24  82 S6        30.00R WCI  23
THEDFORD       CLOUDY    31  28  87 SW6       29.96F WCI  26
$$

NEZ041-046>049-061>064-073>077-083>087-180600-
SOUTH CENTRAL NEBRASKA

CITY           SKY/WX    TMP DP  RH WIND       PRES   REMARKS
GRAND ISLAND   CLEAR     33  30  88 SW12      30.05R WCI  24
AURORA         CLEAR     32  31  96 SW8       30.05S WCI  25
HASTINGS       CLEAR     34  29  82 S9        30.07R WCI  27
HEBRON         CLEAR     33  30  89 SW9       30.11R WCI  25
HOLDREGE       CLOUDY    33  28  81 SW8       30.06S WCI  26
KEARNEY *      CLOUDY    32  27  80 SW10      30.05S WCI  24
YORK           CLEAR     32  32 100 SW10      30.07R WCI  24
$$

NEZ011>018-030>034-042>045-180600-
NORTHEAST NEBRASKA

CITY           SKY/WX    TMP DP  RH WIND       PRES   REMARKS
NORFOLK        CLOUDY    32  29  88 SW12      30.00S WCI  23
ALBION         CLOUDY    31  28  91 S3        30.01S
BLAIR          CLOUDY    29  28  96 S5        30.06R FOG     WCI  24
FREMONT        CLOUDY    31  31 100 S3        30.06S
TEKAMAH        CLOUDY    30  27  88 S9        30.06S FOG     WCI  22
WAYNE          CLOUDY    30  29  96 S5        30.01S WCI  25
$$

NEZ050>053-065>068-078-088>093-180600-
SOUTHEAST NEBRASKA

CITY           SKY/WX    TMP DP  RH WIND       PRES   REMARKS
LINCOLN        CLOUDY    26  25  96 S7        30.11R FOG     WCI  18
OMAHA EPPLEY   CLOUDY    28  23  81 SE8       30.09R FOG     WCI  20
BEATRICE       CLEAR     30  29  96 S7        30.12R WCI  24
FALLS CITY     CLEAR     29  27  92 S5        30.14R WCI  24
NEBRASKA CITY  CLOUDY    30  30 100 S10       30.12R WCI  21
PLATTSMOUTH    CLOUDY    29  26  89 S9        30.10R FOG     WCI  20
$$

NEZ044-045-051>053-067-180600-
OMAHA AREA

CITY           SKY/WX    TMP DP  RH WIND       PRES   REMARKS
OMAHA EPPLEY   CLOUDY    28  23  81 SE8       30.09R FOG     WCI  20
BLAIR          CLOUDY    29  28  96 S5        30.06R FOG     WCI  24
FREMONT        CLOUDY    31  31 100 S3        30.06S
MILLARD        CLOUDY    28  27  95 CALM      30.09S FOG
OFFUTT AFB     CLEAR     25  25 100 SE5       30.09R FOG     WCI  19
PLATTSMOUTH    CLOUDY    29  26  89 S9        30.10R FOG     WCI  20
WAHOO          FAIR      28  27  96 S5        30.07S WCI  23
$$




USA.gov is the U.S. government's official web portal to all federal, state and local government web resources and services.